RH
7 7 8 6 7 7 8 9 10 9 9 11 10 10 9 9 12 17 20 27 29 29 26 27 31 34 37 43 53 62 71 78 76 74 90 71 80 53 48 49 62 69 75 94
6 7 6 6 7 8 8 9 9 8 8 10 10 10 8 8 9 11 14 22 27 25 25 27 34 36 39 44 57 77 82 91 92 93 92 84 70 53 49 49 60 61 64 73
7 4 5 7 7 8 7 8 8 8 9 9 11 12 10 8 7 10 12 15 20 25 24 28 34 40 38 50 74 76 81 82 83 72 69 81 80 65 56 52 55 58 62 64
5 4 6 7 7 6 8 5 6 6 8 12 11 13 11 9 8 8 9 12 16 22 25 26 33 41 41 60 64 76 71 78 81 81 72 79 64 62 53 46 46 54 62 61
7 6 7 7 6 6 7 5 7 8 8 10 12 13 12 11 10 8 12 15 14 16 23 26 27 38 49 61 67 84 83 75 77 78 72 61 68 64 58 47 62 70 70 63
6 5 5 5 4 5 6 7 8 10 7 12 13 11 10 9 10 8 12 15 19 17 18 24 28 44 64 57 72 77 83 83 69 68 70 74 74 74 64 58 82 87 87 81
8 6 5 5 6 6 7 8 11 12 10 12 12 13 12 8 8 12 20 20 19 21 22 26 37 61 65 64 62 71 79 73 73 73 69 73 77 79 76 70 65 90 92 82
10 10 6 5 6 7 8 8 10 18 11 10 16 14 10 10 11 18 23 24 20 23 27 33 41 57 62 58 64 77 75 80 80 69 71 70 71 59 57 63 79 87 94 94
9 9 5 5 5 5 8 11 6 10 9 9 8 8 8 6 7 10 20 28 28 33 37 41 40 50 56 58 56 61 65 74 72 63 71 74 73 72 62 68 76 81 95 96
8 10 5 6 6 6 8 7 10 8 18 17 9 11 9 10 8 12 25 33 39 39 41 46 49 57 56 53 57 61 63 70 68 67 74 71 72 70 68 67 67 70 77 78
6 8 8 7 9 8 8 8 9 7 11 12 12 10 9 9 14 25 33 38 41 38 38 42 45 47 45 46 56 78 77 72 80 78 68 71 68 68 63 62 62 64 70 73
6 7 10 8 6 7 6 8 8 10 18 11 12 9 17 21 22 28 36 40 42 40 40 40 43 46 45 54 76 83 80 78 79 70 69 67 62 60 61 60 61 63 67 64
9 10 11 10 7 8 8 7 9 10 17 17 13 10 19 22 23 30 36 39 40 37 40 46 45 41 45 59 70 80 75 72 70 71 64 60 57 58 61 60 61 60 61 60
30 12 15 8 10 7 10 7 8 10 12 11 11 15 29 31 31 33 31 41 42 39 38 42 43 46 51 57 67 73 72 66 62 58 56 60 56 58 58 61 61 60 59 59
14 23 15 10 9 7 7 7 7 11 11 13 11 15 39 40 40 37 34 36 44 42 37 42 45 50 52 55 60 60 66 62 59 58 55 60 58 59 59 60 60 58 60 58
22 26 21 15 12 8 8 8 9 10 12 15 14 33 37 38 35 39 38 33 43 45 35 42 45 49 54 54 58 60 62 65 62 63 61 62 62 62 62 61 60 62 60 61
25 27 27 18 15 14 21 20 12 22 24 25 18 43 40 39 42 53 51 40 36 36 40 43 45 46 54 56 55 58 66 74 73 71 65 66 67 64 64 61 60 60 62 64
26 34 28 21 22 23 42 33 27 30 41 39 39 43 43 46 40 44 54 54 44 35 35 36 36 46 50 54 62 64 72 81 75 70 70 69 68 66 66 65 66 66 63 65
24 26 22 23 19 33 38 42 37 32 42 44 45 44 42 42 38 46 53 57 60 56 57 49 43 45 53 52 64 73 79 81 71 71 71 67 68 67 67 68 70 66 67 76
25 34 22 22 24 29 35 40 42 42 40 46 50 51 49 41 27 46 56 59 68 69 79 80 61 62 64 66 67 75 77 75 70 67 69 70 71 68 67 69 71 69 66 65
25 26 21 20 23 34 44 42 41 49 53 50 48 51 52 53 56 57 51 58 57 60 71 78 76 66 67 70 72 76 74 73 65 66 66 66 66 71 70 71 69 69 68 66
31 30 23 24 26 32 47 52 57 62 52 44 45 49 55 52 49 50 50 54 56 57 56 61 73 80 68 68 73 74 74 69 68 68 68 68 69 65 64 78 73 71 71 72
52 46 42 54 51 57 47 57 57 55 54 54 54 55 55 50 50 52 55 53 51 54 58 54 55 58 59 75 72 72 70 70 73 75 75 72 71 70 69 77 77 74 78 64
50 48 43 56 54 48 47 49 51 54 57 52 47 46 47 57 58 62 61 63 60 54 57 59 60 61 64 63 66 67 72 73 75 76 75 74 73 73 73 69 70 73 70 64
34 43 42 45 44 43 47 50 50 50 51 49 47 48 52 64 59 57 59 72 68 63 58 56 60 64 74 81 85 81 75 70 75 76 70 70 62 70 85 78 69 57 61 67
28 40 32 34 44 42 52 52 50 48 49 49 51 52 52 57 60 57 65 66 70 75 76 68 63 66 70 79 90 92 95 94 88 91 91 87 85 94 97 99 99 100 100 100
Wind_Speed
12 12 15 18 16 17 10 11 16 14 4 11 15 12 12 10 10 12 12 13 16 20 18 16 16 15 13 12 10 9 9 7 6 3 4 6 6 3 4 4 2 4 7 6
11 18 17 5 11 11 16 16 19 15 9 11 12 12 14 14 12 11 13 14 16 17 16 16 16 16 16 12 10 11 12 13 11 7 8 7 3 2 4 4 4 5 7 10
20 18 9 11 13 15 17 18 17 17 11 10 14 16 15 11 6 8 10 9 15 17 18 18 17 16 16 15 13 12 11 9 8 8 8 6 2 4 5 5 6 6 7 8
17 18 11 12 15 15 18 14 14 17 17 15 10 12 7 7 9 5 2 8 12 16 17 17 17 16 15 16 14 5 8 2 4 7 8 9 5 4 5 6 5 5 7 7
15 13 14 19 20 14 15 6 9 12 14 16 16 10 13 4 9 7 5 4 7 13 15 17 17 15 17 18 14 8 10 13 13 13 12 10 8 5 6 6 6 8 7 8
20 6 10 16 15 13 6 8 10 9 13 15 20 12 13 11 2 6 2 7 8 6 8 13 13 20 20 20 18 17 24 20 9 10 12 12 10 7 6 7 5 5 5 6
17 17 14 10 11 12 10 13 10 12 12 14 5 8 12 12 5 7 9 10 8 2 7 11 15 18 20 23 19 6 10 9 4 10 10 10 7 6 7 7 6 4 3 3
18 18 20 16 20 15 18 16 11 13 12 12 7 9 11 2 4 5 5 6 3 5 9 11 17 18 18 21 14 10 17 8 7 6 9 7 5 3 5 4 5 4 3 3
12 17 4 14 17 19 12 10 14 13 9 10 8 6 7 13 10 10 5 3 6 8 10 12 14 15 16 17 13 13 12 5 3 1 6 7 7 5 3 2 3 3 6 5
13 12 10 10 9 7 14 7 10 10 16 10 9 7 9 9 8 4 3 5 7 9 11 12 10 15 15 15 12 10 10 7 4 4 5 6 6 5 3 3 6 8 9 11
14 11 11 9 13 14 12 13 12 12 5 10 9 7 5 4 7 8 5 6 8 9 11 12 12 11 11 11 11 8 7 6 1 6 5 6 6 6 5 5 7 8 10 10
19 11 15 14 5 4 9 16 20 12 14 12 10 10 8 6 5 5 5 4 7 8 9 10 12 11 9 7 7 8 10 8 9 6 6 6 6 7 7 6 7 8 8 8
10 13 13 17 9 7 11 13 11 10 8 11 10 6 6 8 8 5 1 6 8 7 9 9 9 9 11 10 10 11 12 12 10 10 8 8 9 9 7 6 7 7 8 8
4 7 14 14 16 15 20 17 14 14 11 13 13 7 9 10 11 10 2 3 7 9 8 8 8 9 12 12 11 10 11 13 12 11 10 10 10 9 8 7 7 6 6 7
6 7 8 14 9 8 12 19 15 17 18 10 10 8 8 9 12 9 5 3 7 9 9 7 8 10 10 12 14 13 12 14 14 12 11 10 10 9 8 8 8 7 6 6
1 2 4 7 7 11 12 9 13 14 6 6 5 12 8 6 8 10 10 2 7 9 10 8 7 10 11 13 15 15 14 14 15 15 13 12 11 11 9 8 8 7 6 6
2 1 5 7 5 9 11 2 8 6 3 4 7 8 6 7 8 12 10 8 3 6 7 8 8 9 10 12 12 14 12 10 11 13 15 13 13 11 10 9 9 7 6 7
3 2 3 2 7 12 9 4 2 6 5 4 6 5 6 7 4 10 11 10 8 3 6 7 8 11 10 11 10 8 9 11 13 13 13 14 14 12 11 10 9 7 7 9
3 6 3 7 10 5 6 5 3 5 9 6 5 7 9 9 4 9 15 12 11 10 10 8 7 10 13 14 10 9 10 12 14 14 15 16 15 13 13 11 11 9 9 8
4 4 7 4 10 10 11 5 2 4 7 6 6 8 11 11 8 12 15 14 11 8 7 9 8 5 7 12 13 13 13 13 14 13 13 12 12 16 14 13 12 11 10 9
4 5 11 9 9 6 5 3 4 10 6 6 7 8 10 8 8 10 12 13 11 9 9 8 5 3 5 7 9 11 11 13 12 11 12 14 14 13 12 12 11 11 11 9
5 4 5 5 8 8 3 4 5 6 2 6 7 9 8 8 9 12 13 13 13 12 7 8 7 8 5 4 6 7 9 8 8 11 13 14 14 12 11 12 11 11 11 11
4 5 5 6 6 6 7 9 6 5 6 8 8 8 9 10 12 13 13 14 12 12 13 10 8 7 5 5 5 8 7 6 7 10 12 13 13 12 11 13 12 10 9 10
4 0 2 5 6 7 7 7 6 7 8 7 8 8 8 10 12 11 10 11 11 10 9 9 10 10 9 7 7 8 7 6 8 11 11 11 12 12 11 9 9 9 9 9
6 5 4 10 8 8 6 6 5 6 5 6 6 7 8 9 9 11 11 9 10 11 10 8 7 6 6 5 7 9 9 8 10 11 10 11 11 11 8 9 5 8 7 4
1 5 2 5 6 6 8 6 4 5 6 7 8 8 8 7 9 10 10 9 10 9 9 8 8 7 5 2 2 3 5 5 8 7 6 6 5 4 2 2 1 9 9 9
Wind_Direction
199 235 228 242 238 264 309 272 271 273 249 281 281 289 290 293 235 243 231 207 214 216 210 197 188 192 206 199 188 177 169 153 150 160 302 274 251 233 241 243 229 203 174 182
205 231 244 267 277 253 253 260 264 265 287 261 273 289 294 288 275 254 243 211 226 222 208 194 183 188 197 186 161 147 153 177 155 156 184 265 304 267 260 226 195 210 181 178
231 238 238 211 229 240 245 258 271 271 258 263 279 275 261 267 266 276 258 235 212 228 215 198 187 188 185 160 151 172 177 180 175 170 185 203 178 233 227 223 209 198 198 195
240 242 198 218 237 237 252 249 255 261 258 256 213 274 268 258 302 276 254 211 225 219 223 208 188 186 176 140 148 80 13 146 151 200 203 209 226 242 251 242 220 188 202 199
222 217 226 238 239 234 255 279 277 281 263 255 240 257 273 199 270 293 64 33 282 228 214 204 198 168 134 148 129 122 35 269 214 211 228 210 209 204 239 236 223 233 176 198
257 173 242 242 237 224 235 245 241 255 250 234 244 241 263 265 292 321 284 331 310 314 201 203 190 141 149 159 167 175 173 236 203 222 227 207 186 196 221 223 200 215 203 193
222 224 219 236 231 191 218 241 238 218 217 243 208 227 264 309 282 286 316 327 355 115 154 171 142 145 164 174 176 203 205 200 148 217 212 171 168 190 213 227 224 206 174 201
218 224 217 207 231 226 210 237 252 255 250 235 167 244 258 28 274 244 294 352 29 135 128 149 154 163 177 188 186 199 189 145 149 184 205 166 162 198 228 202 214 208 170 185
231 230 180 224 215 222 215 231 255 272 251 278 271 197 242 243 253 248 277 67 93 113 134 145 159 155 185 192 206 207 200 148 25 72 217 153 172 188 241 206 218 176 123 117
219 245 190 168 188 215 260 230 209 228 263 251 252 244 269 288 277 339 130 111 122 133 137 139 140 149 190 192 199 214 204 216 311 243 189 139 162 158 131 129 118 139 137 142
227 227 175 176 206 210 193 227 241 291 299 280 263 259 88 286 341 25 56 99 125 130 139 141 153 163 172 182 191 209 196 225 295 204 154 147 133 116 145 145 130 143 139 155
217 221 236 204 180 298 238 221 214 229 211 240 287 284 15 34 18 37 87 116 122 133 131 133 148 165 159 156 152 190 190 177 186 169 142 149 122 129 144 153 141 150 142 143
170 224 226 237 193 200 233 230 240 245 284 261 265 233 80 43 42 52 53 146 151 145 140 148 168 165 148 145 139 158 163 164 165 164 165 150 141 142 154 159 146 145 149 148
214 240 237 238 233 214 203 226 216 224 227 232 219 166 48 20 21 33 32 190 176 183 165 170 178 165 146 150 151 157 159 166 171 165 168 159 158 156 157 153 151 155 161 160
206 244 233 256 273 261 216 217 203 215 234 264 252 126 38 3 6 21 45 155 188 200 192 177 180 169 165 164 169 173 177 176 167 165 172 165 160 164 154 163 161 158 172 169
185 247 252 217 232 224 221 238 194 209 222 229 219 113 37 18 11 36 44 107 195 218 215 183 189 177 177 170 171 175 183 179 170 169 169 170 170 168 169 170 165 164 179 186
319 303 230 194 212 172 173 153 195 137 165 293 201 58 5 26 25 32 28 26 324 233 234 219 205 198 188 191 189 191 180 169 173 179 164 170 174 175 172 169 168 165 198 200
293 298 275 102 189 215 69 115 290 119 105 71 92 52 22 12 13 45 30 13 5 343 277 248 226 210 208 204 198 188 170 174 180 186 170 171 170 176 172 174 169 168 202 211
278 272 193 249 229 90 154 157 176 226 113 45 27 23 9 351 135 89 23 20 353 341 329 308 270 236 206 208 196 178 182 183 197 188 179 177 170 179 175 178 172 180 203 210
160 246 258 196 257 229 73 110 8 279 160 49 22 21 2 341 257 55 359 360 355 354 330 309 292 236 214 206 193 195 191 191 202 192 187 189 180 177 181 180 179 181 206 210
191 228 230 218 246 104 49 328 236 220 72 38 27 25 14 17 5 333 345 353 353 7 14 359 324 282 225 198 195 203 199 205 209 182 185 194 186 189 180 184 182 189 201 219
259 249 189 241 243 212 24 141 279 33 58 20 19 19 0 355 356 356 345 344 342 340 359 9 8 356 336 217 210 223 225 224 203 187 192 200 192 193 185 184 194 196 206 211
228 342 5 339 46 79 62 72 72 25 29 28 23 27 13 9 4 349 341 331 332 335 335 336 337 343 5 356 280 261 257 243 227 203 202 202 202 201 199 194 200 202 210 235
127 93 115 201 107 97 91 89 70 53 40 30 31 24 20 0 1 357 347 341 331 328 325 316 328 324 320 321 310 292 286 262 240 227 207 210 208 202 205 212 213 197 200 215
31 175 111 96 116 118 95 69 51 58 46 29 21 14 3 15 352 353 356 349 341 327 321 318 304 312 325 345 320 321 303 251 236 231 212 206 205 202 195 226 225 229 224 245
231 118 150 76 84 65 86 88 68 55 33 13 352 347 353 14 346 355 2 350 352 350 335 328 311 314 309 327 337 353 352 324 251 240 200 192 167 113 112 176 173 27 65 51